This demonstration page uses our WeatherBlox Daily Observations layout. Learn more.

40.92945, -100.16068

Hourly Observations for August 10, 2016

Temp ( °F °C ) Dew Point ( °F °C ) Humidity (%) Winds ( mph kmh ) Pressure ( in mb ) Visibility ( mi km ) Precip ( " mm )
12:15 am 00:15 Clear 73 23 68 19.9 83 83 SSE 7 11 29.83 1010 10 16.09344 0 0
12:35 am 00:35 Clear 73 23 68 19.8 82 82 SSE 7 11 29.83 1010 10 16.09344 0 0
12:55 am 00:55 Clear 73 22.5 67 19.7 84 84 SSE 5 7 29.85 1011 10 16.09344 0 0
1:15 am 01:15 Clear 73 22.5 67 19.5 83 83 SE 6 9 29.85 1011 10 16.09344 0 0
1:35 am 01:35 Clear 72 22.3 67 19.4 84 84 SSE 7 11 29.85 1011 10 16.09344 0 0
1:55 am 01:55 Clear 72 22.1 66 19.1 83 83 S 6 9 29.85 1011 10 16.09344 0 0
2:15 am 02:15 Clear 72 22 66 19 83 83 SSE 7 11 29.85 1011 10 16.09344 0 0
2:35 am 02:35 Clear 72 22.3 66 19 82 82 SSE 7 11 29.85 1011 10 16.09344 0 0
2:55 am 02:55 Clear 71 21.7 66 19 85 85 SSE 6 9 29.85 1011 10 16.09344 0 0
3:15 am 03:15 Clear 70 21.3 66 19 87 87 SSE 5 7 29.85 1011 10 16.09344 0 0
3:35 am 03:35 Clear 70 21.1 66 19.1 88 88 SSE 5 7 29.85 1011 10 16.09344 0 0
3:55 am 03:55 Clear 69 20.8 66 19 90 90 SE 3 6 29.85 1011 10 16.09344 0 0
4:15 am 04:15 Clear 70 21 66 19 88 88 SE 5 7 29.85 1011 10 16.09344 0 0
4:35 am 04:35 Clear 68 20.2 65 18.6 91 91 Calm 29.85 1011 10 16.09344 0 0
4:55 am 04:55 Clear 67 19.6 65 18.5 93 93 ENE 3 6 29.85 1011 10 16.09344 0 0
5:15 am 05:15 Clear 67 19.6 65 18.5 93 93 E 5 7 29.83 1010 10 16.09344 0 0
5:35 am 05:35 Clear 66 19 64 18 94 94 E 5 7 29.88 1012 7 11.265408 0 0
5:55 am 05:55 Clear 67 19.4 65 18.4 94 94 E 6 9 29.85 1011 10 16.09344 0 0
6:15 am 06:15 Clear 67 19.3 65 18.1 93 93 E 3 6 29.85 1011 10 16.09344 0 0
6:35 am 06:35 Clear 66 19.1 64 18 93 93 E 5 7 29.88 1012 10 16.09344 0 0
6:55 am 06:55 Sunny 69 20.5 67 19.4 93 93 SSE 3 6 29.85 1011 10 16.09344 0 0
7:15 am 07:15 Sunny 70 21 67 19.5 91 91 SSE 6 9 29.85 1011 10 16.09344 0 0
7:35 am 07:35 Sunny 71 21.7 68 20 90 90 SSE 6 9 29.85 1011 10 16.09344 0 0
7:55 am 07:55 Sunny 73 22.5 69 20.3 87 87 SSE 8 13 29.85 1011 10 16.09344 0 0
8:15 am 08:15 Sunny 74 23.2 69 20.5 85 85 SSE 10 17 29.8 1009 10 16.09344 0 0
8:35 am 08:35 Sunny 75 24 69 20.5 81 81 SSE 10 17 29.83 1010 10 16.09344 0 0
8:55 am 08:55 Sunny 77 25 69 20.7 77 77 S 9 15 29.83 1010 10 16.09344 0 0
9:15 am 09:15 Sunny 79 26.1 69 20.7 72 72 S 13 20 29.83 1010 10 16.09344 0 0
9:35 am 09:35 Sunny 80 26.7 70 21 71 71 S 12 19 29.8 1009 10 16.09344 0 0
9:55 am 09:55 Sunny 82 27.7 70 21.2 68 68 SSE 12 19 29.77 1008 10 16.09344 0 0
10:15 am 10:15 Sunny 82 27.9 70 21.1 67 67 S 14 22 29.8 1009 10 16.09344 0 0
10:35 am 10:35 Sunny 82 28 70 21.2 67 67 S 13 20 29.8 1009 10 16.09344 0 0
10:55 am 10:55 Sunny 83 28.3 70 21 65 65 S 12 19 29.8 1009 10 16.09344 0 0
11:15 am 11:15 Sunny 85 29.2 70 21.3 62 62 S 12 19 29.77 1008 10 16.09344 0 0
11:35 am 11:35 Sunny 86 30 70 21.2 59 59 S 12 19 29.74 1007 10 16.09344 0 0
11:55 am 11:55 Sunny 87 30.5 70 21.1 57 57 SSE 13 20 29.74 1007 10 16.09344 0 0
12:15 pm 12:15 Sunny 87 30.8 70 21 56 56 SSE 15 24 29.74 1007 10 16.09344 0 0
12:35 pm 12:35 Sunny 88 31.2 70 21 55 55 SSE 12 19 29.74 1007 10 16.09344 0 0
12:55 pm 12:55 Sunny 89 31.7 69 20.8 52 52 S 16 26 29.74 1007 10 16.09344 0 0
1:15 pm 13:15 Sunny 90 32 70 21 52 52 SSE 16 26 29.74 1007 10 16.09344 0 0
1:35 pm 13:35 Sunny 90 32.2 70 21 52 52 SE 16 26 29.74 1007 10 16.09344 0 0
1:55 pm 13:55 Sunny 90 32.4 68 20.1 48 48 SSE 18 30 29.74 1007 10 16.09344 0 0
2:15 pm 14:15 Sunny 92 33.2 69 20.7 48 48 SSE 15 24 29.74 1007 10 16.09344 0 0
2:35 pm 14:35 Sunny 92 33.1 69 20.7 48 48 SSE 16 26 29.68 1005 10 16.09344 0 0
2:55 pm 14:55 Sunny 92 33.5 69 20.8 47 47 S 17 28 29.68 1005 10 16.09344 0 0
3:15 pm 15:15 Sunny 93 33.8 69 20.6 46 46 SSE 18 30 29.68 1005 10 16.09344 0 0
3:35 pm 15:35 Sunny 92 33.6 69 20.5 46 46 SSE 18 30 29.68 1005 10 16.09344 0 0
3:55 pm 15:55 Partly Cloudy 93 34 70 20.9 46 46 SSE 18 30 29.68 1005 10 16.09344 0 0
4:15 pm 16:15 Sunny 93 34 70 20.9 46 46 SSE 15 24 29.68 1005 10 16.09344 0 0
4:35 pm 16:35 Sunny 93 33.7 70 21 47 47 SSE 18 30 29.65 1004 10 16.09344 0 0
4:55 pm 16:55 Partly Cloudy 94 34.2 70 21 46 46 SSE 16 26 29.65 1004 10 16.09344 0 0
5:15 pm 17:15 Sunny 94 34.2 69 20.7 45 45 SSE 16 26 29.65 1004 10 16.09344 0 0
5:35 pm 17:35 Partly Cloudy 93 34.1 68 20.1 44 44 SSE 16 26 29.65 1004 10 16.09344 0 0
5:55 pm 17:55 Partly Cloudy 93 33.8 69 20.3 45 45 SSE 17 28 29.62 1003 10 16.09344 0 0
6:15 pm 18:15 Sunny 92 33.5 68 20.1 45 45 SSE 14 22 29.62 1003 10 16.09344 0 0
6:35 pm 18:35 Sunny 92 33.3 69 20.6 47 47 SSE 15 24 29.62 1003 10 16.09344 0 0
6:55 pm 18:55 Sunny 91 33 70 21.2 50 50 SSE 12 19 29.62 1003 10 16.09344 0 0
7:15 pm 19:15 Sunny 91 32.6 70 21.3 51 51 SSE 13 20 29.62 1003 10 16.09344 0 0
7:35 pm 19:35 Sunny 90 32 71 21.4 53 53 SE 10 17 29.65 1004 10 16.09344 0 0
7:55 pm 19:55 Sunny 88 30.9 71 21.5 57 57 SE 9 15 29.65 1004 10 16.09344 0 0
8:15 pm 20:15 Sunny 87 30.6 72 22 60 60 SE 10 17 29.65 1004 10 16.09344 0 0
8:35 pm 20:35 Sunny 85 29.6 72 22 64 64 SSE 10 17 29.65 1004 10 16.09344 0 0
8:55 pm 20:55 Clear 84 29.1 72 22.1 66 66 SE 10 17 29.65 1004 10 16.09344 0 0
9:15 pm 21:15 Clear 83 28.5 72 22 68 68 SSE 13 20 29.68 1005 10 16.09344 0 0
9:35 pm 21:35 Clear 84 28.7 71 21.8 66 66 SSE 15 24 29.65 1004 10 16.09344 0 0
9:55 pm 21:55 Clear 83 28.5 71 21.8 67 67 SSE 12 19 29.68 1005 10 16.09344 0 0
10:15 pm 22:15 Clear 82 27.7 72 22 71 71 SSE 12 19 29.71 1006 10 16.09344 0 0
10:35 pm 22:35 Clear 81 27.1 72 22 74 74 SSE 14 22 29.71 1006 10 16.09344 0 0
10:55 pm 22:55 Clear 81 27 71 21.6 72 72 SSE 13 20 29.71 1006 10 16.09344 0 0
11:15 pm 23:15 Clear 81 27 71 21.5 72 72 SSE 14 22 29.71 1006 10 16.09344 0 0
11:35 pm 23:35 Clear 81 27 71 21.5 72 72 SSE 12 19 29.71 1006 10 16.09344 0 0
11:55 pm 23:55 Clear 81 27 70 21.2 71 71 SSE 12 19 29.68 1005 10 16.09344 0 0

Powered by AerisWeather